Flag for French Polynesia Weather past 2 weeks in Gambier Islands, French Polynesia

Now
69 °F

Mild.


Feels Like: 69 °F
Forecast: 71 / 75 °F
Wind: 1 mph from North

Location: Rikitea

Current Time: Aug 23, 2014 at 2:30:21 AM

Latest Report: Aug 23, 2014 at 1:00 AM


Visibility: N/A

Pressure: 30.04 "Hg

Humidity: 97%

Dew point: 68 °F

Location of Gambier IslandsLocation

Historic Weather in Gambier Islands — Graph

°F

Gambier Islands temperature yesterday

Maximum temperature yesterday: 73 °F (at 11:00 AM)
Minimum temperature yesterday: 68 °F (at 12:00 AM)
Average temperature yesterday: 70 °F

Past Weeks' High & Low Weather Summary

 TemperatureHumidityPressure
High77 °F (Aug 11, 12:00 PM)98% (Aug 14, 12:00 AM)30.26 "Hg (Aug 14, 12:00 AM)
Low63 °F (Aug 8, 4:00 AM)53% (Aug 8, 10:00 AM)29.92 "Hg (Aug 19, 3:00 PM)
Average69 °F78%30.09 "Hg
* Reported Aug 8 1:00 AM — Aug 23 1:00 AM, Gambier Islands, Weather by CustomWeather, © 2014

Note: Actual official high and low records may vary slightly from our data, if they occured in-between our weather recording intervals... More about our weather records

Advertising

Gambier Islands weather history for previous 24 hours

 ConditionsComfort  
Time TempWeatherWind HumidityBarometerVisibility
1:00 AM
Aug 23
69 °FMild.1 mph97%30.04 "HgN/A
12:00 AM69 °FMild.2 mph97%30.06 "HgN/A
11:00 PM
Aug 22
70 °FMild.7 mph96%30.07 "HgN/A
10:00 PM70 °FMild.2 mph95%30.07 "HgN/A
9:00 PM70 °FMild.2 mph94%30.07 "HgN/A
8:00 PM70 °FMild.2 mph94%30.07 "HgN/A
7:00 PM70 °FMild.2 mph95%30.04 "HgN/A
6:00 PM69 °FMild.2 mph94%30.03 "HgN/A
5:00 PM70 °FPassing clouds.3 mph94%30.01 "Hg6 mi
4:00 PM72 °FOvercast.3 mph87%29.99 "Hg16 mi
3:00 PM72 °FOvercast.3 mph87%29.99 "Hg12 mi
2:00 PM72 °FOvercast.2 mph86%30.01 "Hg7 mi
1:00 PM71 °FLow clouds.3 mph89%30.02 "Hg7 mi
12:00 PM69 °FLight rain. Low clouds.3 mph93%30.05 "Hg4 mi
11:00 AM73 °FPartly sunny.2 mph84%30.06 "Hg25 mi
10:00 AM72 °FOvercast.3 mph84%30.07 "Hg22 mi
9:00 AM71 °FOvercast.2 mph85%30.07 "Hg22 mi
8:00 AM70 °FOvercast.3 mph85%30.06 "Hg25 mi
7:00 AM69 °FOvercast.2 mph87%30.05 "Hg25 mi
6:00 AM68 °FOvercast.1 mph87%30.03 "Hg19 mi
5:00 AM68 °FMild.5 mph89%30.01 "HgN/A
4:00 AM68 °FMild.3 mph87%30.00 "HgN/A
3:00 AM68 °FMild.2 mph87%30.01 "HgN/A
2:00 AM68 °FMild.1 mph86%30.02 "HgN/A
Weather by CustomWeather, © 2014

See weather overviewHow to use our weather pages